Hourly Data Report for December 03, 2006

TORONTO CITY
ONTARIO

43°40'00.000" N
79°24'00.000" W
112.50 m
6158355
71508
XTO

Download Data

Hourly Data (December 2006)
Hourly Data Report for December 3, 2006
TIME
LST
Temp Definition
°C
Dew Point Definition
°C
Rel Hum Definition
%
Precip. Amount Definition
mm

Wind Dir Definition
10's deg

Wind Spd Definition
km/h
Visibility Definition
km
Stn Press Definition
kPa
Hmdx Definition


Wind Chill Definition


Weather Definition


00:00 0.6 -2.4 80   LegendMM LegendMM   101.34     LegendNANA
01:00 0.5 -1.9 84   LegendMM LegendMM   101.31     LegendNANA
02:00 0.7 -1.6 85   LegendMM LegendMM   101.26     LegendNANA
03:00 1.1 -1.8 81   LegendMM LegendMM   101.27     LegendNANA
04:00 1.1 -2.6 76   LegendMM LegendMM   101.21     LegendNANA
05:00 0.5 -2.8 78   LegendMM LegendMM   101.20     LegendNANA
06:00 0.1 -3.3 78   LegendMM LegendMM   101.17     LegendNANA
07:00 -0.2 -3.4 79   LegendMM LegendMM   101.19     LegendNANA
08:00 -0.2 -3.7 77   LegendMM LegendMM   101.19     LegendNANA
09:00 0.4 -3.6 74   LegendMM LegendMM   101.19     LegendNANA
10:00 0.7 -3.5 73   LegendMM LegendMM   101.20     LegendNANA
11:00 1.0 -3.6 71   LegendMM LegendMM   101.16     LegendNANA
12:00 1.0 -3.8 70   LegendMM LegendMM   101.10     LegendNANA
13:00 0.7 -4.5 68   LegendMM LegendMM   101.06     LegendNANA
14:00 0.3 -7.0 58   LegendMM LegendMM   101.04     LegendNANA
15:00 -0.3 -6.3 64   LegendMM LegendMM   101.04     LegendNANA
16:00 -0.9 -6.9 64   LegendMM LegendMM   101.09     LegendNANA
17:00 -1.3 -7.7 62   LegendMM LegendMM   101.09     LegendNANA
18:00 -1.7 -7.5 65   LegendMM LegendMM   101.08     LegendNANA
19:00 -1.7 -7.1 67   LegendMM LegendMM   101.06     LegendNANA
20:00 -1.9 -6.4 71   LegendMM LegendMM   101.04     LegendNANA
21:00 -2.0 -5.6 76   LegendMM LegendMM   101.02     LegendNANA
22:00 -2.6 -5.5 80   LegendMM LegendMM   101.01     LegendNANA
23:00 -2.6 -6.2 76   LegendMM LegendMM   100.99     LegendNANA

Notes on Data Quality.

Legend

  • E = Estimated
  • M = Missing
  • NA = Not Available*
  • [empty] = Indicates an unobserved value
Date modified: